![]() |
EMODnet Physics ERDDAP
Easier access to scientific data |
log in|
Brought to you by EMODnet Physics |
| Dataset Title: | NDBC - Collection of dew point temperature (DEWT) TimeSeries - IN SITU MultiPointTimeSeriesObservation
|
| Institution: | NDBC (Dataset ID: TS_DEWT_NDBC) |
| Information: | Summary
| License
| FGDC
| ISO 19115
| Metadata
| Background
| Subset
| Data Access Form
| Make a graph
|
| Name | Last modified | Size | Description | |
|---|---|---|---|---|
| Parent Directory | - | - | ||
| SRLM4_TS_DEWT_012016.nc | 27-Oct-2024 21:58 | 588194 | ||
| SRLM4_TS_DEWT_012017.nc | 27-Oct-2024 21:58 | 588037 | ||
| SRLM4_TS_DEWT_012018.nc | 27-Oct-2024 21:58 | 588190 | ||
| SRLM4_TS_DEWT_012019.nc | 27-Oct-2024 21:58 | 588212 | ||
| SRLM4_TS_DEWT_012020.nc | 27-Oct-2024 21:58 | 429497 | ||
| SRLM4_TS_DEWT_012021.nc | 27-Oct-2024 21:58 | 429175 | ||
| SRLM4_TS_DEWT_012022.nc | 27-Oct-2024 21:58 | 439575 | ||
| SRLM4_TS_DEWT_012023.nc | 27-Oct-2024 21:58 | 439648 | ||
| SRLM4_TS_DEWT_012024.nc | 27-Oct-2024 21:58 | 440109 | ||
| SRLM4_TS_DEWT_012025.nc | 07-Feb-2025 15:24 | 433259 | ||
| SRLM4_TS_DEWT_012026.nc | 17-Feb-2026 14:23 | 439795 | ||
| SRLM4_TS_DEWT_022016.nc | 27-Oct-2024 21:58 | 439880 | ||
| SRLM4_TS_DEWT_022017.nc | 27-Oct-2024 21:58 | 440117 | ||
| SRLM4_TS_DEWT_022018.nc | 27-Oct-2024 21:58 | 439971 | ||
| SRLM4_TS_DEWT_022019.nc | 27-Oct-2024 21:58 | 439059 | ||
| SRLM4_TS_DEWT_022020.nc | 27-Oct-2024 21:58 | 439909 | ||
| SRLM4_TS_DEWT_022021.nc | 27-Oct-2024 21:58 | 440072 | ||
| SRLM4_TS_DEWT_022022.nc | 27-Oct-2024 21:59 | 439893 | ||
| SRLM4_TS_DEWT_022023.nc | 27-Oct-2024 21:59 | 440118 | ||
| SRLM4_TS_DEWT_022024.nc | 16-Sep-2024 16:51 | 439867 | ||
| SRLM4_TS_DEWT_022025.nc | 01-Mar-2025 10:25 | 440095 | ||
| SRLM4_TS_DEWT_022026.nc | 01-Mar-2026 16:43 | 440153 | ||
| SRLM4_TS_DEWT_032016.nc | 27-Oct-2024 21:59 | 429836 | ||
| SRLM4_TS_DEWT_032017.nc | 27-Oct-2024 21:59 | 423994 | ||
| SRLM4_TS_DEWT_032018.nc | 27-Oct-2024 21:59 | 429759 | ||
| SRLM4_TS_DEWT_032019.nc | 27-Oct-2024 21:59 | 588181 | ||
| SRLM4_TS_DEWT_032020.nc | 27-Oct-2024 21:59 | 588159 | ||
| SRLM4_TS_DEWT_032022.nc | 27-Oct-2024 21:59 | 588032 | ||
| SRLM4_TS_DEWT_032023.nc | 27-Oct-2024 21:59 | 588162 | ||
| SRLM4_TS_DEWT_032025.nc | 02-Apr-2025 08:34 | 440323 | ||
| SRLM4_TS_DEWT_032026.nc | 21-Mar-2026 19:06 | 587916 | ||
| SRLM4_TS_DEWT_042015.nc | 27-Oct-2024 21:59 | 588035 | ||
| SRLM4_TS_DEWT_042016.nc | 27-Oct-2024 21:59 | 588126 | ||
| SRLM4_TS_DEWT_042017.nc | 27-Oct-2024 21:59 | 439842 | ||
| SRLM4_TS_DEWT_042018.nc | 27-Oct-2024 21:59 | 587867 | ||
| SRLM4_TS_DEWT_042019.nc | 27-Oct-2024 21:59 | 588139 | ||
| SRLM4_TS_DEWT_042020.nc | 27-Oct-2024 21:59 | 588126 | ||
| SRLM4_TS_DEWT_042022.nc | 27-Oct-2024 21:59 | 588164 | ||
| SRLM4_TS_DEWT_042023.nc | 27-Oct-2024 22:00 | 588066 | ||
| SRLM4_TS_DEWT_042025.nc | 01-May-2025 07:45 | 588188 | ||
| SRLM4_TS_DEWT_052015.nc | 27-Oct-2024 22:00 | 429206 | ||
| SRLM4_TS_DEWT_052016.nc | 27-Oct-2024 22:00 | 428972 | ||
| SRLM4_TS_DEWT_052017.nc | 27-Oct-2024 22:00 | 428752 | ||
| SRLM4_TS_DEWT_052018.nc | 27-Oct-2024 22:00 | 429611 | ||
| SRLM4_TS_DEWT_052019.nc | 27-Oct-2024 22:00 | 588147 | ||
| SRLM4_TS_DEWT_052020.nc | 27-Oct-2024 22:00 | 587849 | ||
| SRLM4_TS_DEWT_052022.nc | 27-Oct-2024 22:00 | 588119 | ||
| SRLM4_TS_DEWT_052023.nc | 27-Oct-2024 22:00 | 587800 | ||
| SRLM4_TS_DEWT_052025.nc | 01-Jun-2025 09:11 | 440211 | ||
| SRLM4_TS_DEWT_062015.nc | 27-Oct-2024 22:00 | 588015 | ||
| SRLM4_TS_DEWT_062016.nc | 27-Oct-2024 22:00 | 587799 | ||
| SRLM4_TS_DEWT_062017.nc | 27-Oct-2024 22:00 | 587761 | ||
| SRLM4_TS_DEWT_062018.nc | 27-Oct-2024 22:00 | 439791 | ||
| SRLM4_TS_DEWT_062019.nc | 27-Oct-2024 22:00 | 438959 | ||
| SRLM4_TS_DEWT_062020.nc | 27-Oct-2024 22:00 | 588161 | ||
| SRLM4_TS_DEWT_062022.nc | 27-Oct-2024 22:00 | 587958 | ||
| SRLM4_TS_DEWT_062023.nc | 27-Oct-2024 22:00 | 588127 | ||
| SRLM4_TS_DEWT_062025.nc | 01-Jul-2025 07:36 | 588047 | ||
| SRLM4_TS_DEWT_072015.nc | 27-Oct-2024 22:01 | 588189 | ||
| SRLM4_TS_DEWT_072016.nc | 27-Oct-2024 22:01 | 426105 | ||
| SRLM4_TS_DEWT_072017.nc | 27-Oct-2024 22:01 | 429454 | ||
| SRLM4_TS_DEWT_072018.nc | 27-Oct-2024 22:01 | 429387 | ||
| SRLM4_TS_DEWT_072019.nc | 27-Oct-2024 22:01 | 439597 | ||
| SRLM4_TS_DEWT_072020.nc | 27-Oct-2024 22:01 | 440141 | ||
| SRLM4_TS_DEWT_072021.nc | 27-Oct-2024 22:01 | 440133 | ||
| SRLM4_TS_DEWT_072022.nc | 27-Oct-2024 22:01 | 439424 | ||
| SRLM4_TS_DEWT_072023.nc | 27-Oct-2024 22:01 | 439863 | ||
| SRLM4_TS_DEWT_072025.nc | 01-Aug-2025 08:15 | 439966 | ||
| SRLM4_TS_DEWT_082015.nc | 27-Oct-2024 22:01 | 440016 | ||
| SRLM4_TS_DEWT_082016.nc | 27-Oct-2024 22:01 | 439921 | ||
| SRLM4_TS_DEWT_082017.nc | 27-Oct-2024 22:01 | 439259 | ||
| SRLM4_TS_DEWT_082018.nc | 27-Oct-2024 22:01 | 439977 | ||
| SRLM4_TS_DEWT_082019.nc | 27-Oct-2024 22:01 | 440090 | ||
| SRLM4_TS_DEWT_082020.nc | 27-Oct-2024 22:01 | 440141 | ||
| SRLM4_TS_DEWT_082021.nc | 27-Oct-2024 22:02 | 440147 | ||
| SRLM4_TS_DEWT_082022.nc | 27-Oct-2024 22:02 | 440141 | ||
| SRLM4_TS_DEWT_082023.nc | 27-Oct-2024 22:02 | 440134 | ||
| SRLM4_TS_DEWT_082025.nc | 01-Sep-2025 09:24 | 422819 | ||
| SRLM4_TS_DEWT_092015.nc | 27-Oct-2024 22:02 | 429647 | ||
| SRLM4_TS_DEWT_092016.nc | 27-Oct-2024 22:02 | 429837 | ||
| SRLM4_TS_DEWT_092017.nc | 27-Oct-2024 22:02 | 588164 | ||
| SRLM4_TS_DEWT_092018.nc | 27-Oct-2024 22:02 | 587939 | ||
| SRLM4_TS_DEWT_092019.nc | 27-Oct-2024 22:02 | 588142 | ||
| SRLM4_TS_DEWT_092020.nc | 27-Oct-2024 22:02 | 438980 | ||
| SRLM4_TS_DEWT_092021.nc | 27-Oct-2024 22:02 | 440210 | ||
| SRLM4_TS_DEWT_092022.nc | 27-Oct-2024 22:02 | 588147 | ||
| SRLM4_TS_DEWT_092023.nc | 27-Oct-2024 22:02 | 588136 | ||
| SRLM4_TS_DEWT_092025.nc | 01-Oct-2025 10:00 | 588003 | ||
| SRLM4_TS_DEWT_102015.nc | 27-Oct-2024 22:02 | 419743 | ||
| SRLM4_TS_DEWT_102016.nc | 27-Oct-2024 22:02 | 440181 | ||
| SRLM4_TS_DEWT_102017.nc | 27-Oct-2024 22:02 | 588169 | ||
| SRLM4_TS_DEWT_102018.nc | 27-Oct-2024 22:03 | 588156 | ||
| SRLM4_TS_DEWT_102019.nc | 27-Oct-2024 22:03 | 587888 | ||
| SRLM4_TS_DEWT_102020.nc | 27-Oct-2024 22:03 | 425759 | ||
| SRLM4_TS_DEWT_102021.nc | 27-Oct-2024 22:03 | 588192 | ||
| SRLM4_TS_DEWT_102022.nc | 27-Oct-2024 22:03 | 428446 | ||
| SRLM4_TS_DEWT_102023.nc | 27-Oct-2024 22:03 | 429392 | ||
| SRLM4_TS_DEWT_102024.nc | 12-Jan-2025 23:24 | 428515 | ||
| SRLM4_TS_DEWT_102025.nc | 01-Nov-2025 09:31 | 429428 | ||
| SRLM4_TS_DEWT_112015.nc | 27-Oct-2024 22:03 | 440103 | ||
| SRLM4_TS_DEWT_112016.nc | 27-Oct-2024 22:03 | 439797 | ||
| SRLM4_TS_DEWT_112017.nc | 27-Oct-2024 22:03 | 439962 | ||
| SRLM4_TS_DEWT_112018.nc | 27-Oct-2024 22:03 | 425859 | ||
| SRLM4_TS_DEWT_112019.nc | 27-Oct-2024 22:03 | 440041 | ||
| SRLM4_TS_DEWT_112020.nc | 27-Oct-2024 22:03 | 437647 | ||
| SRLM4_TS_DEWT_112021.nc | 27-Oct-2024 22:03 | 439938 | ||
| SRLM4_TS_DEWT_112022.nc | 27-Oct-2024 22:03 | 439622 | ||
| SRLM4_TS_DEWT_112023.nc | 27-Oct-2024 22:03 | 439967 | ||
| SRLM4_TS_DEWT_112024.nc | 17-Jan-2025 21:10 | 440020 | ||
| SRLM4_TS_DEWT_112025.nc | 16-Dec-2025 16:13 | 440141 | ||
| SRLM4_TS_DEWT_122015.nc | 27-Oct-2024 22:04 | 438860 | ||
| SRLM4_TS_DEWT_122016.nc | 27-Oct-2024 22:04 | 430395 | ||
| SRLM4_TS_DEWT_122017.nc | 27-Oct-2024 22:04 | 440170 | ||
| SRLM4_TS_DEWT_122018.nc | 27-Oct-2024 22:04 | 440125 | ||
| SRLM4_TS_DEWT_122019.nc | 27-Oct-2024 22:04 | 429633 | ||
| SRLM4_TS_DEWT_122020.nc | 27-Oct-2024 22:04 | 429183 | ||
| SRLM4_TS_DEWT_122021.nc | 27-Oct-2024 22:04 | 429835 | ||
| SRLM4_TS_DEWT_122022.nc | 27-Oct-2024 22:04 | 588113 | ||
| SRLM4_TS_DEWT_122023.nc | 27-Oct-2024 22:04 | 588138 | ||
| SRLM4_TS_DEWT_122024.nc | 22-Jan-2025 20:46 | 439620 | ||